Weather History for PAWD - August, 2013

Change the Weather History Date:

Friday, August 23, 2013

  Actual Average Record
Temperature  
Mean Temperature 55 °F -  
Max Temperature 60 °F 60 °F 74 °F (1953)
Min Temperature 50 °F 48 °F 39 °F (2006)
Degree Days  
Heating Degree Days 10    
Growing Degree Days 5 (Base 50)    
Moisture  
Dew Point 52 °F    
Average Humidity 95    
Maximum Humidity 100    
Minimum Humidity 77    
Precipitation  
Precipitation 0.01 in - - ()
Sea Level Pressure  
Sea Level Pressure 29.64 in    
Wind  
Wind Speed 1 mph (South)    
Max Wind Speed 9 mph    
Max Gust Speed -    
Visibility 5 miles    
Events Fog    
Averages and records for this station are not official NWS values.
T = Trace of Precipitation, MM = Missing Value Source: NWS Daily Summary

Daily Weather History Graph

Daily Weather History Graph

Search for Another Location

Airport or City:

Trip Planner

Search our weather history database for the weather conditions in past years. The results will help you decide how hot, cold, wet, or windy it might be!

Date:

Astronomy

Aug. 23, 2013 Rise Set
Actual Time 6:31 AM AKDT 9:26 PM AKDT
Civil Twilight 5:43 AM AKDT 10:14 PM AKDT
Nautical Twilight 4:37 AM AKDT 11:19 PM AKDT
Astronomical Twilight 2:45 AM AKDT 1:03 AM AKDT
Moon 9:40 PM AKDT (8/23) 10:42 AM AKDT (8/23)
Length of Visible Light 16h 30m
Length of Day
14h 54m
Waning Gibbous, 90% of the Moon is Illuminated
Aug 23
Waning Gibbous
Aug 28
Last Quarter
Sep 5
New
Sep 12
First Quarter
Sep 19
Full

Hourly Weather History & Observations

Time (AKDT) Temp. Dew Point Humidity Pressure Visibility Wind Dir Wind Speed Gust Speed Precip Events Conditions
12:00 AM 51.8 °F 51.8 °F 100% 29.72 in 0.8 mi Calm Calm - N/A   Overcast
12:20 AM 53.6 °F 51.8 °F 94% 29.72 in 1.2 mi Calm Calm - N/A   Overcast
12:40 AM 53.6 °F 51.8 °F 94% 29.72 in 1.0 mi Calm Calm - N/A   Overcast
12:53 AM 52.0 °F 52.0 °F 100% 29.72 in 1.5 mi Calm Calm - N/A   Overcast
1:09 AM 53.6 °F 51.8 °F 94% 29.72 in 3.0 mi Calm Calm - N/A   Overcast
1:47 AM 51.8 °F 51.8 °F 100% 29.71 in 1.8 mi Calm Calm - N/A   Overcast
1:53 AM 52.0 °F 52.0 °F 100% 29.71 in 1.2 mi Calm Calm - N/A   Overcast
2:02 AM 51.8 °F 51.8 °F 100% 29.71 in 0.8 mi SSW 3.5 mph - N/A   Overcast
2:12 AM 51.8 °F 51.8 °F 100% 29.71 in 1.2 mi Calm Calm - N/A   Overcast
2:18 AM 51.8 °F 51.8 °F 100% 29.71 in 3.0 mi Calm Calm - N/A   Overcast
2:29 AM 51.8 °F 51.8 °F 100% 29.71 in 1.8 mi Calm Calm - N/A   Overcast
2:36 AM 51.8 °F 51.8 °F 100% 29.71 in 0.8 mi Calm Calm - N/A   Overcast
2:53 AM 51.1 °F 51.1 °F 100% 29.70 in 0.8 mi Calm Calm - N/A   Overcast
3:07 AM 51.8 °F 51.8 °F 100% 29.70 in 1.0 mi Calm Calm - N/A   Mist
3:18 AM 51.8 °F 51.8 °F 100% 29.70 in 0.5 mi Calm Calm - N/A Fog Fog
3:44 AM 50.0 °F 50.0 °F 100% 29.70 in 1.2 mi Calm Calm - N/A   Overcast
3:48 AM 51.8 °F 50.0 °F 94% 29.69 in 3.0 mi Calm Calm - N/A   Overcast
3:53 AM 51.1 °F 51.1 °F 100% 29.70 in 3.0 mi Calm Calm - N/A   Overcast
4:04 AM 51.8 °F 51.8 °F 100% 29.69 in 1.8 mi Calm Calm - N/A   Overcast
4:07 AM 51.8 °F 51.8 °F 100% 29.69 in 1.0 mi Calm Calm - N/A   Overcast
4:15 AM 51.8 °F 51.8 °F 100% 29.68 in 0.5 mi Calm Calm - N/A Fog Fog
4:26 AM 51.8 °F 51.8 °F 100% 29.68 in 1.5 mi Calm Calm - N/A   Overcast
4:36 AM 51.8 °F 51.8 °F 100% 29.68 in 0.8 mi Calm Calm - N/A   Mist
4:53 AM 52.0 °F 52.0 °F 100% 29.68 in 0.5 mi Calm Calm - 0.01 in Fog Fog
5:13 AM 51.8 °F 51.8 °F 100% 29.67 in 1.2 mi Calm Calm - N/A   Overcast
5:17 AM 51.8 °F 51.8 °F 100% 29.67 in 3.0 mi Calm Calm - N/A   Overcast
5:24 AM 51.8 °F 51.8 °F 100% 29.67 in 1.8 mi Calm Calm - N/A   Overcast
5:31 AM 51.8 °F 51.8 °F 100% 29.67 in 0.8 mi Calm Calm - N/A   Mist
5:48 AM 51.8 °F 51.8 °F 100% 29.67 in 1.2 mi Calm Calm - N/A   Overcast
5:53 AM 52.0 °F 51.1 °F 97% 29.67 in 3.0 mi Calm Calm - N/A   Overcast
6:50 AM 51.8 °F 51.8 °F 100% 29.64 in 1.8 mi Calm Calm - N/A   Overcast
6:53 AM 51.1 °F 51.1 °F 100% 29.65 in 1.5 mi Calm Calm - N/A   Overcast
6:59 AM 51.8 °F 51.8 °F 100% 29.64 in 0.8 mi Calm Calm - N/A   Mist
7:10 AM 51.8 °F 51.8 °F 100% 29.64 in 1.0 mi Calm Calm - N/A   Overcast
7:15 AM 51.8 °F 51.8 °F 100% 29.65 in 2.0 mi Calm Calm - N/A   Overcast
7:25 AM 51.8 °F 51.8 °F 100% 29.64 in 10.0 mi Calm Calm - N/A   Overcast
7:33 AM 51.8 °F 51.8 °F 100% 29.64 in 1.5 mi Calm Calm - N/A   Overcast
7:36 AM 51.8 °F 51.8 °F 100% 29.64 in 0.8 mi Calm Calm - N/A   Overcast
7:53 AM 52.0 °F 52.0 °F 100% 29.64 in 1.0 mi Calm Calm - N/A   Overcast
7:59 AM 53.6 °F 51.8 °F 94% 29.64 in 2.0 mi Calm Calm - N/A   Overcast
8:06 AM 53.6 °F 51.8 °F 94% 29.64 in 8.0 mi Calm Calm - N/A   Overcast
8:34 AM 53.6 °F 51.8 °F 94% 29.63 in 10.0 mi Calm Calm - N/A   Overcast
8:53 AM 53.1 °F 52.0 °F 96% 29.62 in 10.0 mi Calm Calm - N/A   Overcast
9:53 AM 55.0 °F 53.1 °F 93% 29.62 in 10.0 mi Calm Calm - N/A   Overcast
10:53 AM 57.0 °F 53.1 °F 87% 29.60 in 10.0 mi Calm Calm - N/A   Mostly Cloudy
11:14 AM 57.2 °F 53.6 °F 88% 29.59 in 10.0 mi South 5.8 mph - N/A   Scattered Clouds
11:45 AM 57.2 °F 53.6 °F 88% 29.59 in 10.0 mi South 4.6 mph - N/A   Mostly Cloudy
11:53 AM 59.0 °F 53.1 °F 81% 29.59 in 10.0 mi SW 5.8 mph - N/A   Mostly Cloudy
12:40 PM 59.0 °F 51.8 °F 77% 29.57 in 10.0 mi SE 6.9 mph - N/A   Partly Cloudy
12:53 PM 57.9 °F 53.1 °F 84% 29.57 in 10.0 mi South 5.8 mph - N/A   Partly Cloudy
1:53 PM 57.9 °F 54.0 °F 87% 29.57 in 10.0 mi South 5.8 mph - N/A   Clear
2:53 PM 57.9 °F 53.1 °F 84% 29.55 in 10.0 mi SSE 8.1 mph - N/A   Partly Cloudy
3:53 PM 60.1 °F 54.0 °F 80% 29.55 in 10.0 mi SSE 8.1 mph - N/A   Clear
4:53 PM 59.0 °F 54.0 °F 83% 29.53 in 10.0 mi South 8.1 mph - N/A   Scattered Clouds
5:53 PM 59.0 °F 54.0 °F 83% 29.52 in 10.0 mi South 6.9 mph - N/A   Partly Cloudy
6:43 PM 57.2 °F 53.6 °F 88% 29.52 in 10.0 mi South 8.1 mph - N/A   Mostly Cloudy
6:53 PM 57.9 °F 53.1 °F 84% 29.52 in 10.0 mi South 9.2 mph - N/A   Overcast
7:53 PM 57.0 °F 53.1 °F 87% 29.52 in 10.0 mi Calm Calm - N/A   Overcast
8:53 PM 57.0 °F 53.1 °F 87% 29.52 in 10.0 mi Calm Calm - N/A   Overcast
9:53 PM 55.0 °F 52.0 °F 89% 29.52 in 10.0 mi Calm Calm - N/A   Overcast
10:48 PM 51.8 °F 51.8 °F 100% 29.52 in 10.0 mi Calm Calm - N/A   Scattered Clouds
10:53 PM 52.0 °F 51.1 °F 97% 29.52 in 10.0 mi Calm Calm - N/A   Scattered Clouds
11:08 PM 51.8 °F 51.8 °F 100% 29.52 in 10.0 mi Calm Calm - N/A   Scattered Clouds
11:53 PM 51.1 °F 50.0 °F 96% 29.52 in 10.0 mi Variable 3.5 mph - N/A   Overcast